www.pogodaiklimat.ru

Погода и климат >> Архив погоды >> Украина >> Купянск


ПОГОДА в Купянске

  • Прогноз погоды в Купянске
  • Монитор погоды в Купянске

АРХИВ ПОГОДЫ в Купянске

Время (UTC), дата Ветер
(напр.,м/с)
 
Видим.   Явления Облачность Т
(С)
Тd
(С)
f
(%)
Тe
(С)
Тes
(С)
Комфортность P
(гПа)
Po
(гПа)
Тmin
(С)
Tmax
(С)
R
(мм)
R24
(мм)
S
(см)
03 15.03 В 2 10 км слаб. снег 10/0
[As op]
+0.8 -2.1 81 -3 -3 1015.2 1004.8
06 15.03 В 3 4000 м слаб. снег {дождь} 10/9 600 м
[Frnb As op]
0.0 -1.5 90 -5 -5 1014.5 1004.1 -0.2 0.5 0
09 15.03 ЮВ 3 4000 м слаб. дождь со снегом 10/10 600 м
[Sc As op]
+0.3 -1.3 89 -4 -4 1013.0 1002.6
12 15.03 В 3 4000 м слаб. дождь со снегом 10/8 600 м
[Sc As op]
+0.6 -1.1 88 -4 -4 1012.2 1001.8
15 15.03 В 2 4000 м в посл. час дождь 10/10 600 м
[Sc]
+0.5 -0.9 90 -3 -3 1011.4 1001.0
18 15.03 ЮВ 2 4000 м слаб. дождь 10/9 600 м
[Frnb As op]
+0.5 -0.9 90 -3 -3 1011.3 1000.9 +0.6 0.6
21 15.03 ЮВ 1 4000 м {дождь} 10/10 600 м
[Sc]
+0.8 -0.9 88 -1 -1 1010.5 1000.1
00 16.03 В 1 4000 м слаб. дождь со снегом 10/9 600 м
[Frnb As op]
+0.8 -0.3 92 -1 -1 1009.4 999.0
03 16.03 штиль 0 1000 м слаб. снег 10/9 600 м
[Frnb As op]
+0.6 0.0 96 -1 -1 1008.5 998.1
06 16.03 штиль 0 1000 м слаб. снег 10/9 600 м
[Frnb As op]
+0.2 -0.4 96 -1 -1 1008.4 998.0 +0.2 1 2
09 16.03 Ю 2 20 км 10/10 600 м
[Sc]
+2.0 -0.2 85 -1 -1 1008.0 997.7
12 16.03 Ю 2 20 км 10/10 600 м
[Sc]
+2.8 +0.7 86 -0 -0 1006.5 996.3
15 16.03 В 2 20 км 4/0
[Ci fib]
+4.9 +0.5 73 +2 +3 1005.3 995.1
18 16.03 штиль 0 10 км 3/0
[Cs]
+2.9 +0.5 84 +2 +2 1005.3 995.1 +4.9
21 16.03 Ю 1 10 км 4/0
[Ac As]
+2.9 +0.8 86 +1 +1 1004.6 994.4
00 17.03 ЮВ 2 10 км 5/0
[Ac As]
+2.0 -0.5 83 -1 -1 1004.8 994.5
03 17.03 ЮВ 2 4000 м слаб. ливневой дождь 10/10 600 м
[Cu Sc]
+1.8 -0.4 85 -2 -2 1005.5 995.2
06 17.03 ЮВ 2 20 км {ливн. осадки} 10/10 600 м
[Sc]
+2.8 +1.8 93 -0 -0 1007.0 996.7 +1.8 2
09 17.03 ЮВ 2 4000 м слаб. дождь 10/9 600 м
[Frnb As op]
+4.8 +3.6 92 +2 +2 1009.2 999.0
12 17.03 ЮВ 2 20 км {дождь} 9/9 600 м
[Cb cap]
+6.6 +4.0 83 +4 +5 1010.8 1000.7
15 17.03 штиль 0 20 км 9/9 600 м
[Sc]
+6.7 +3.6 81 +6 +6 1013.0 1002.8
18 17.03 штиль 0 10 км 9/9 600 м
[Sc]
+4.8 +2.0 82 +4 +4 1015.1 1004.8 +7.0 0.5
21 17.03 штиль 0 10 км ясно +0.6 -2.0 83 -1 -1 1017.1 1006.7
00 18.03 штиль 0 4000 м дымка 10/0
[As trans]
+0.2 -0.9 92 -1 -1 1018.9 1008.4
03 18.03 штиль 0 200 м туман 10/0
[As op]
+0.2 -0.4 96 -1 -1 1020.7 1010.2
06 18.03 штиль 0 50 м туман ?/? -0.1 -0.1 100 -2 -2 1021.9 1011.4 -0.1
09 18.03 Ю 1 4000 м дымка {туман} 6/6 600 м
[Sc]
+5.3 +3.9 91 +4 +8 1023.9 1013.6
12 18.03 Ю 4 50 км {туман} 8/8 600 м
[Sc diur, vesp]
+11.0 +2.3 55 +9 +10 1023.1 1013.0
15 18.03 Ю 2 50 км 8/4 600 м
[Sc diur, vesp Cs]
+11.0 +2.6 56 +10 +10 1022.9 1012.8
18 18.03 штиль 0 10 км 8/8 600 м
[Sc]
+6.6 +3.2 79 +6 +6 1024.4 1014.1 +11.3
21 18.03 Ю 2 10 км 8/8 600 м
[Sc]
+6.6 +3.8 82 +4 +4 1025.3 1015.0
00 19.03 Ю 1 10 км 10/0
[Cs]
+4.0 +1.7 85 +3 +3 1025.6 1015.2
03 19.03 штиль 0 10 км 3/0
[Cs]
0.0 -1.8 88 -1 -1 1026.5 1015.9
06 19.03 штиль 0 4000 м дымка 4/0
[Ci fib]
+3.8 +1.2 83 +3 +7 1027.2 1016.8 -0.4
09 19.03 ЮВ 3 20 км 1/1 1000 м
[Cu hum]
+11.5 +2.4 54 +10 +17 1026.3 1016.2
12 19.03 ЮВ 3 20 км 8/8 1000 м
[Cu hum]
+13.4 +1.8 45 +13 +14 1025.3 1015.2
15 19.03 Ю 1 20 км 1/0
[Ac lent]
+13.1 +2.0 47 +14 +14 1024.6 1014.5
18 19.03 штиль 0 10 км 1/0
[Ci fib]
+5.8 +2.9 82 +5 +5 1025.8 1015.5 +13.4
21 19.03 штиль 0 10 км ясно +2.4 +0.2 85 +1 +1 1026.5 1016.0
00 20.03 штиль 0 10 км ясно +1.0 -1.0 86 -0 -0 1026.8 1016.3
03 20.03 штиль 0 2000 м дымка ясно -0.6 -2.4 88 -2 -2 1026.7 1016.1
06 20.03 ЮВ 2 50 м туман ?/? 0.0 0.0 100 -4 -4 1027.2 1016.6 -0.6
09 20.03 Ю 2 1000 м дымка {туман} 10/0
[As op]
+3.0 +2.2 94 -0 +2 1026.8 1016.4
12 20.03 ЮЗ 2 10 км {туман} 1/0
[]
+8.8 +3.7 70 +7 +13 1025.0 1014.8
15 20.03 Ю 1 10 км 6/0
[Ac As Cc]
+10.7 +3.9 63 +11 +11 1024.0 1013.9
18 20.03 штиль 0 10 км 10/0
[Ac und]
+6.3 +3.7 83 +5 +5 1024.9 1014.6 +10.7
21 20.03 С 3 10 км 10/10 600 м
[Sc]
+5.8 +3.1 83 +3 +3 1025.3 1015.0
00 21.03 СЗ 2 4000 м слаб. дождь 10/0
[As op]
+4.0 +1.7 85 +1 +1 1025.7 1015.3
03 21.03 С 1 10 км {дождь} 10/0
[Ac und]
+3.0 +0.6 84 +1 +1 1025.5 1015.1
06 21.03 Ю 1 10 км {дождь} 8/0
[Ac lent]
+2.0 -0.2 85 0 +2 1025.5 1015.0 +2.0 2
09 21.03 З 2 20 км 8/8 600 м
[Cu hum]
+4.1 -8.2 40 +2 +4 1024.4 1014.0
12 21.03 З 3 20 км 9/8 600 м
[Cb cap Ac As]
+8.4 -3.1 44 +6 +7 1022.3 1012.1
15 21.03 З 2 50 км слаб. дождь 10/9 600 м
[Frnb As op]
+4.9 +0.4 73 +2 +2 1022.2 1011.9
18 21.03 З 1 4000 м слаб. дождь 10/9 600 м
[Frnb As op]
+4.0 +1.4 83 +3 +3 1022.8 1012.4 +8.4 0.3
21 21.03 С 2 10 км {дождь} 10/10 600 м
[Sc]
+3.4 +1.0 84 0 0 1022.9 1012.5
00 22.03 З 1 10 км {дождь} 10/10 600 м
[Sc]
+3.0 +0.9 86 +1 +1 1022.8 1012.4

 

Местоположение метеостанции Купянск (Харьковская область, Украина): широта 49.63 долгота 37.70 высота над уровнем моря 83 м.

В архиве по умолчанию представлена погода в Купянске за последнюю неделю. Архивные данные за месяц целиком и за предыдущие месяцы, начиная с января 2011 года, Вы можете получить, выбрав интересующий диапазон дат из раскрывающегося списка и нажав кнопку "Ввод!".


*Определитесь, кто Вы:
робот инопланетянин человек

Внимание! Время в таблицах - всемирное. Для получения местного времени необходимо прибавить поправку, которая равна 2 ч.

Смотрите также архив погоды в соседних городах и на ближайших метеорологических станциях:

Погода в Сватово (Луганская область, Украина) (41 км)
Погода в Новопскове (Луганская область, Украина) (46 км)
Погода в Троицком (Луганская область, Украина) (51 км)
Погода в Великом Бурлуке (Харьковская область, Украина) (54 км)
Погода в Изюме (Харьковская область, Украина) (58 км)
Погода в Валуйках (Белгородская область, Россия) (72 км)
Погода в Комсомольском (Донецкая область, Украина) (84 км)
Погода в Артемовске (Донецкая область, Украина) (116 км)
Погода в Харькове (Харьковская область, Украина) (119 км)
Погода в Новом Осколе (Белгородская область, Россия) (125 км)

Пояснения к столбцам:

Ветер - указаны скорость ветра в м/с - средняя за 10 мин, порывы в срок и между сроками (в фигурных скобках) и направление, откуда дует ветер: С - северный, СВ - северо-восточный, В - восточный, ЮВ - юго-восточный, Ю - южный, ЮЗ - юго-западный, З - западный, СЗ - северо-западный.
Видимость - горизонтальная дальность видимости в метрах или километрах. При видимости от 1 до 10 км при отсутствии осадков обычно наблюдается дымка, при ухудшении видимости до 1 км и менее - туман. В сухую погоду видимость может ухудшаться дымом, пылью или мглою.
Явления - указаны атмосферные явления, наблюдавшиеся в срок или в последний час перед сроком; фигурными скобками обозначены явления, наблюдавшиеся между сроками (за 1-3 часа до срока); квадратными скобками обозначены град или гололедные отложения с указанием их диаметра в мм.
Облачность - указаны через наклонную черту общая и нижняя облачность в баллах и высота нижней границы облаков в метрах; квадратными скобками обозначены формы облаков: Ci - перистые, Cs - перисто-слоистые, Cc - перисто-кучевые, Ac - высококучевые, As - высокослоистые, Sc - слоисто-кучевые, Ns - слоисто-дождевые, Cu - кучевые, Cb - кучево-дождевые. Подробнее классификацию облаков см. в Атласе облаков (PDF).
T - Температура воздуха - температура, измеренная на высоте 2 м над землей.
Td - Температура точки росы - температура, при понижении до которой содержащийся в воздухе водяной пар достигнет насыщения.
f - Относительная влажность воздуха - влажноcть воздуха, измеренная на высоте 2 м над землей.
Te - Эффективная температура - температура, которую ощущает одетый по сезону человек в тени. Характеристика душности погоды. При расчете учитывается влияние влажности воздуха и скорости ветра на теплоощущения человека.
Tes - Эффективная температура на солнце - температура, которую ощущает человек, с поправкой на солнечный нагрев. Характеристика знойности погоды. Зависит от высоты солнца над горизонтом, облачности и скорости ветра. Ночью, в пасмурную погоду, а также при ветре 12 м/с и более поправка равна нулю.
P - Атмосферное давление - приведенное к уровню моря атмосферное давление.
Po - Атмосферное давление - измеренное на уровне метеостанции атмосферное давление.
Tmin - Минимальная температура - минимум температуры воздуха на высоте 2 м над землей.
Tmax - Максимальная температура - максимум температуры воздуха на высоте 2 м над землей.
R - Количество осадков - Количество выпавших осадков за период времени, мм. При наведении курсора мыши на число - период времени, за который выпало указанное количество осадков.
R24 - Количество осадков - Количество выпавших осадков за 24 часа, мм.
S - Снежный покров - Высота снежного покрова, см. При наведении курсора мыши на число - состояние снежного покрова и степень покрытия местности в баллах.